Back to catalog

STARLINK-34388

AliveCommunicationsVLEO
NORAD 64294·PAYLOAD·🇺🇸 United States

Launched Jun 8, 2025 from Vandenberg Space Force Base

Loading…

Next Passes (next 24 hours)

TLE

FreshSource: CelesTrak SupGP

Epoch: Sep 14, 2026, 22:49 UTC

1 64294C 25123D   26257.95118056  .00030039  00000+0  10451-2 0  2579
2 64294  70.0001  75.5213 0003297 273.5989  16.8707 15.29560191    11

Track STARLINK-34388 in real time with AllMySat

Download on the App Store